Dewpoint
73 73 73 73 73 73 73 73 73 73 74 73 73 74 75 76 77 77 77 77 78 77 77 78 78 78 77 78 78 77 77 77 77 76 77 76 76 75 75 74 74 74
73 73 73 73 73 74 74 74 74 74 75 75 75 75 76 77 76 77 77 77 77 77 78 77 78 78 78 77 77 76 76 76 76 76 76 76 76 76 75 75 74 74
73 73 72 72 71 72 71 73 74 74 73 74 75 76 75 76 76 77 77 77 77 76 77 77 78 78 77 78 78 77 76 76 77 76 76 76 76 76 76 73 74 74
74 73 72 71 71 72 72 73 74 74 73 74 74 73 74 74 76 76 76 77 77 77 77 77 77 77 77 78 78 76 76 76 77 78 77 76 76 76 76 76 75 74
74 73 72 72 72 73 73 73 71 72 72 73 73 74 75 76 76 75 76 76 77 76 77 77 77 77 78 78 78 76 75 75 76 77 76 76 76 76 76 76 76 75
74 74 74 73 73 73 72 72 72 72 72 71 73 73 73 75 75 74 75 74 74 74 74 75 76 76 76 77 77 76 75 74 75 76 76 76 76 76 76 76 76 75
73 74 73 73 73 73 73 73 73 73 72 72 73 73 73 73 74 74 75 75 74 75 74 75 76 76 77 77 76 76 75 75 76 75 75 76 76 77 76 77 77 76
73 73 73 73 72 72 73 72 72 73 73 73 73 73 73 72 73 73 74 74 74 75 75 75 76 77 76 76 76 76 75 74 74 75 75 75 75 76 76 76 77 77
73 73 73 73 72 72 71 71 72 72 73 73 71 71 73 73 73 72 74 75 74 75 76 76 76 76 76 76 76 76 76 75 75 75 75 74 74 75 76 76 75 75
73 73 72 71 71 71 71 71 70 72 72 72 71 71 71 73 73 73 74 75 74 75 75 76 76 75 75 76 76 76 76 76 76 76 75 75 75 76 76 76 76 76
72 71 71 71 71 70 70 70 70 70 72 71 71 70 71 72 73 74 74 75 73 74 75 75 75 75 75 75 75 75 76 75 76 76 76 76 76 76 76 76 76 75
72 71 71 71 71 70 70 70 70 70 71 71 71 71 71 71 72 73 73 74 74 74 75 75 75 75 76 75 74 74 75 75 75 76 75 76 76 75 76 76 76 76
71 71 71 71 71 71 70 70 70 70 70 70 71 71 71 71 71 72 73 73 74 74 74 75 75 75 76 76 75 75 75 76 75 75 75 75 75 75 74 75 75 75
71 71 72 72 72 73 72 71 70 70 71 71 71 71 70 71 70 71 72 73 73 74 74 75 75 75 76 76 76 75 75 75 75 75 75 75 75 75 74 74 74 74
72 72 72 72 72 73 72 72 71 72 72 72 72 71 71 71 71 71 72 73 73 74 74 74 74 74 75 75 75 76 75 74 75 75 75 75 75 74 74 75 74 74
73 73 73 73 73 73 73 73 72 72 71 72 72 72 72 72 72 72 71 72 72 74 74 74 74 74 72 68 70 75 75 74 75 75 75 75 75 75 74 74 74 74
74 73 73 73 73 73 73 73 73 72 72 73 73 72 72 73 73 72 71 71 71 72 73 73 74 73 68 65 65 66 73 75 75 75 76 75 75 75 75 74 74 75
73 73 73 73 73 73 74 73 73 73 73 73 73 72 73 73 72 72 73 72 71 71 71 72 73 69 65 64 64 64 67 74 74 74 74 74 75 74 74 74 74 74
73 73 73 73 73 73 74 74 74 73 73 73 72 72 72 73 73 72 73 72 72 72 71 71 72 67 64 63 63 63 63 68 73 73 73 74 74 75 74 75 75 75
73 73 73 73 73 73 73 73 73 73 72 71 71 72 73 73 72 73 73 74 73 73 73 72 72 67 63 62 62 62 62 65 73 73 74 74 74 74 74 75 75 76
73 73 73 73 73 73 73 73 73 73 72 71 71 71 72 73 72 72 73 73 73 72 73 72 71 65 61 60 60 60 61 63 73 73 73 74 74 74 75 75 75 75
73 73 73 73 73 73 73 73 73 73 73 72 72 71 72 72 72 72 72 73 73 72 71 72 71 64 61 60 59 59 60 69 73 74 74 73 74 74 75 76 76 76
73 73 73 73 73 73 73 72 73 73 73 73 72 72 71 71 72 71 73 72 72 72 72 72 71 66 60 59 58 58 60 71 72 73 74 74 74 74 75 75 75 76
73 73 73 73 73 73 73 72 72 73 73 73 72 71 70 71 72 72 72 73 72 71 71 72 71 68 58 57 57 57 63 72 73 73 73 74 74 74 75 75 75 73
73 73 73 72 73 73 72 73 73 73 73 73 72 72 72 73 72 72 72 73 71 71 70 70 71 68 58 57 57 56 63 73 73 73 73 73 73 74 75 75 75 74
73 74 73 72 73 73 73 73 74 73 73 73 73 73 72 72 72 72 72 72 72 71 71 71 71 72 71 57 56 55 57 72 73 72 72 73 73 73 73 74 74 75